Regional Weather Roundup
Issued by NWS

Home | Current Version | Previous Version | Text Only | Print | Product List | Glossary On
Versions: 1 2 3 4 5 6 7 8 9 10 11 12 13 14 15 16 17 18 19 20 21 22 23 24 25 26 27 28 29 30 31 32 33 34 35 36 37 38 39 40 41 42 43 44 45 46 47 48 49
156
ASUS42 KKEY 081810
RWRKEY

FLORIDA REGIONAL WEATHER ROUNDUP FOR THE FLORIDA KEYS
NATIONAL WEATHER SERVICE KEY WEST FLORIDA
100 PM EST MON FEB 08 2016

...SOUTH FLORIDA AND THE KEYS...

CITY           SKY/WX    TMP DP  RH WIND       PRES   REMARKS
FORT MYERS     SUNNY     64  47  53 W12       30.07F
SW REGIONAL AP SUNNY     64  46  52 W8        30.08F
NAPLES         MOSUNNY   62  47  57 SW7       30.09F
MIAMI          PTSUNNY   64  42  44 VRB7      30.10F
WEST KENDALL   MOSUNNY   65  45  48 NW8       30.10F
HOMESTEAD      NOT AVBL
MARATHON       SUNNY     62  45  53 N5        30.12F
BOCA CHICA NAS MOSUNNY   67  49  52 N6        30.12F
KEY WEST INTL  SUNNY     64  52  64 SE7       30.12F

...INTERNATIONAL WEATHER...

CITY           SKY/WX    TMP DP  RH WIND       PRES   REMARKS
NASSAU BAHAMAS MOSUNNY   70  54  56 W9        30.07F
CANCUN MEXICO  PTSUNNY   73  57  56 NW8       30.16F
COZUMEL MEXICO MOSUNNY   70  59  68 NW12      30.16F

ADJACENT COASTAL WATERS...

STATION/POSITION TIME  SKY/WX   TEMP    WIND        PRES    WAVE
                                AIR SEA DIR/SP/G            HT/PER
                 (UTC)          (F)     (DEG/KT/KT) (MB)    (FT/S)
PULASKI SHOAL LI NOT AVBL
SAND KEY         1750            62     230/  1/  3 1020.5F
SOMBRERO KEY     NOT AVBL
LONG KEY         1700            59 64   CALM  /  2 1021.5F
MOLASSES REEF    1800            60 71  300/  7/  8 1019.6F
FOWEY ROCKS      NOT AVBL

$$




USA.gov is the U.S. government's official web portal to all federal, state and local government web resources and services.